Date,TemperatureHighF,TemperatureAvgF,TemperatureLowF,DewpointHighF,DewpointAvgF,DewpointLowF,HumidityHigh,HumidityAvg,HumidityLow,PressureMaxIn,PressureMinIn,WindSpeedMaxMPH,WindSpeedAvgMPH,GustSpeedMaxMPH,PrecipitationSumIn
2013-2-1,69,54,42,47,37,25,92,58,20,30.36,30.22,11,5,18,0.00
2013-2-2,74,58,46,54,45,40,98,65,32,30.30,30.15,10,4,13,0.00
2013-2-3,73,57,44,53,47,41,100,75,44,30.21,30.08,11,4,17,0.00
2013-2-4,72,57,44,56,45,34,100,71,26,30.15,30.03,7,2,12,0.00
2013-2-5,79,61,44,58,50,42,100,70,35,30.10,29.99,6,2,10,0.00
2013-2-6,80,68,57,63,59,56,100,76,46,30.12,30.03,9,2,13,0.00
2013-2-7,82,70,60,70,63,56,100,81,47,30.08,29.90,14,7,22,0.00
2013-2-8,82,70,57,69,62,54,100,80,39,30.09,29.89,9,6,15,0.00
2013-2-9,79,64,54,59,56,52,100,79,39,30.19,30.06,10,6,16,0.00
2013-2-10,82,68,58,64,60,58,100,78,46,30.26,30.16,12,6,23,0.00
2013-2-11,83,70,59,68,62,59,100,80,47,30.22,30.08,11,4,17,0.00
2013-2-12,83,72,63,72,66,62,100,85,51,30.12,29.96,8,5,16,0.00
2013-2-13,84,73,62,74,68,61,100,87,57,30.00,29.88,15,7,26,0.00
2013-2-14,68,62,60,65,62,60,100,99,83,30.05,29.94,10,3,17,0.00
2013-2-15,69,61,57,61,59,57,100,94,68,30.08,29.97,7,2,10,0.00
2013-2-16,69,57,51,57,50,39,100,79,50,30.12,29.94,16,7,27,0.00
2013-2-17,56,47,38,39,27,20,82,48,25,30.33,30.12,15,7,26,0.00
2013-2-18,72,54,35,50,42,34,100,69,38,30.35,30.21,13,5,27,0.00
2013-2-19,78,63,49,61,54,48,100,76,47,30.21,30.08,12,4,21,0.00
2013-2-20,80,67,59,67,62,59,100,87,54,30.13,30.01,7,3,12,0.00
2013-2-21,84,70,58,68,62,58,100,81,45,30.12,29.99,8,4,11,0.00
2013-2-22,87,73,63,72,66,60,100,81,42,30.09,29.98,15,5,24,0.00
2013-2-23,86,75,69,73,70,65,100,85,52,30.03,29.90,11,6,21,0.00
2013-2-24,84,74,68,72,69,64,100,87,52,29.98,29.90,10,4,16,0.00
2013-2-25,85,75,67,73,67,64,100,81,51,29.93,29.79,10,4,17,0.00
2013-2-26,77,71,64,75,70,64,100,97,77,29.90,29.75,14,7,25,0.00
2013-2-27,75,66,58,65,60,53,100,83,49,29.99,29.89,9,5,17,0.00
2013-2-28,73,62,54,59,54,51,100,77,46,30.02,29.92,13,6,22,0.00